Location: Dehesa de la Cepeda
(40.6574°N, 4.3013°W)
Time: 20:13:18
(UTC+00:00)

Explorer 7 - Pass Details

Date: 07 August 2021
Orbit: 484 x 676 km, 50.3° (Epoch: 17 September)

Event Time Altitude Azimuth Distance (km) Brightness Sun altitude
Exits shadow 02:24:28 26° 83° (E) 992 8.4 -26.4°
Drops below altitude 10° 02:26:22 10° 67° (ENE) 1,676 10.0 -26.2°
Sets 02:28:38 0° 61° (ENE) 2,574 11.2 -25.9°
